Location: Te Maire Creek
(41.1333°S, 175.9167°E)
Time: 00:33:41
(UTC+00:00)

USA 276 - Pass Details

Date: 19 May 2024
Orbit: 366 x 369 km, 50.0° (Epoch: 12 July)

Event Time Altitude Azimuth Distance (km) Brightness Sun altitude
Exits shadow 18:48:44 - 258° (WSW) 1,500 4.4 -6.6°
Reaches altitude 10° 18:49:04 10° 255° (WSW) 1,384 4.2 -6.5°
Maximum altitude 18:51:40 24° 198° (SSW) 835 3.4 -6.1°
Drops below altitude 10° 18:54:15 10° 141° (SE) 1,372 5.1 -5.6°
Sets 18:56:31 0° 126° (SE) 2,207 6.4 -5.2°
